Home   Weather   Freiberg   Past weeks

Flag for Germany Past Weather in Freiberg, Saxony, Germany — Yesterday and Last 2 Weeks

Now
45 °F

Partly sunny.


Feels Like: 40 °F
Forecast: 33 / 42 °F
Wind: 9 mph from West

Location: Dresden-Klotzsche

Current Time: Apr 25, 2017 at 5:08:51 pm

Latest Report: Apr 25, 2017 at 4:20 pm


Visibility: N/A

Pressure: 29.74 "Hg

Humidity: 71%

Dew Point: 36 °F

Location of FreibergLocation

Past Weather in Freiberg — Graph

°F

Freiberg Temperature Yesterday

Maximum temperature yesterday: 57 °F (at 4:20 pm)
Minimum temperature yesterday: 34 °F (at 6:20 am)
Average temperature yesterday: 46 °F

High & Low Weather Summary for the Past Weeks

 TemperatureHumidityPressure
High70 °F (Apr 10, 2:20 pm)100% (Apr 13, 5:50 am)30.54 "Hg (Apr 13, 5:50 am)
Low28 °F (Apr 19, 5:20 am)35% (Apr 10, 2:20 pm)29.59 "Hg (Apr 25, 5:50 am)
Average44 °F71%30.06 "Hg
* Reported Apr 10 2:20 pm — Apr 25 2:20 pm, Freiberg, Weather by CustomWeather, © 2017

Note: Actual official high and low records may vary slightly from our data, if they occured in-between our weather recording intervals... More about our weather records

Advertising

Freiberg Weather History for the Previous 24 Hours

Scroll right to see more
 ConditionsComfort  
Time TempWeatherWind HumidityBarometerVisibility
2:20 pm
Tue, Apr 25
46 °FPartly sunny.12 mph66%29.71 "HgN/A
1:50 pm46 °FPartly sunny.14 mph71%29.71 "HgN/A
1:20 pm48 °FPartly sunny.13 mph71%29.68 "HgN/A
12:50 pm50 °FPartly sunny.17 mph67%29.68 "HgN/A
12:20 pm54 °FBroken clouds.10 mph58%29.65 "HgN/A
11:50 am52 °FPartly sunny.14 mph62%29.65 "HgN/A
11:20 am54 °FPartly sunny.14 mph54%29.65 "HgN/A
10:50 am54 °FPartly sunny.17 mph51%29.62 "HgN/A
10:20 am55 °FBroken clouds.14 mph47%29.62 "HgN/A
9:50 am55 °FOvercast.10 mph51%29.62 "HgN/A
9:20 am54 °FPassing clouds.13 mph51%29.62 "HgN/A
8:50 am54 °FPassing clouds.13 mph51%29.62 "HgN/A
8:20 am52 °FPassing clouds.12 mph54%29.62 "HgN/A
7:50 am50 °FSunny.10 mph58%29.62 "Hg10 mi
7:20 am48 °FSunny.9 mph62%29.59 "Hg10 mi
6:50 am45 °FSunny.8 mph71%29.59 "Hg10 mi
5:50 am45 °FSunny.8 mph66%29.59 "Hg10 mi
4:50 am43 °FClear.9 mph71%29.62 "Hg10 mi
4:20 am45 °FClear.8 mph66%29.65 "Hg10 mi
3:50 am45 °FClear.10 mph66%29.65 "Hg10 mi
3:20 am45 °FClear.6 mph66%29.65 "Hg10 mi
2:50 am43 °FClear.7 mph71%29.68 "Hg10 mi
2:20 am45 °FClear.8 mph66%29.68 "Hg10 mi
1:50 am45 °FClear.7 mph66%29.71 "Hg10 mi
12:50 am45 °FClear.8 mph66%29.74 "Hg10 mi
12:20 am46 °FClear.8 mph66%29.74 "Hg10 mi
11:50 pm
Mon, Apr 24
46 °FClear.9 mph66%29.74 "Hg10 mi
11:20 pm46 °FClear.9 mph66%29.77 "Hg10 mi
10:50 pm48 °FClear.8 mph62%29.77 "Hg10 mi
10:20 pm48 °FClear.8 mph58%29.80 "Hg10 mi
9:50 pm48 °FClear.7 mph58%29.80 "Hg10 mi
9:20 pm50 °FClear.5 mph54%29.80 "Hg10 mi
8:50 pm52 °FClear.3 mph50%29.80 "Hg10 mi
8:20 pm54 °FPassing clouds.3 mph47%29.80 "HgN/A
7:50 pm55 °FPassing clouds.5 mph44%29.83 "HgN/A
7:20 pm55 °FPassing clouds.5 mph44%29.83 "HgN/A
6:50 pm57 °FPassing clouds.7 mph39%29.83 "HgN/A
6:20 pm57 °FPassing clouds.9 mph39%29.83 "HgN/A
5:50 pm57 °FPassing clouds.10 mph39%29.83 "HgN/A
5:20 pm57 °FPassing clouds.10 mph39%29.86 "HgN/A
Weather by CustomWeather, © 2017

See weather overviewHow to use our weather pages